Date String (YYYY-MM-DD hh:mm:ss) UTC,Instrument flags,Ambient pressure (hPa),Sample flow (lpm),Bypass flow (lpm),Sample temperature (°C),Ambient temperature (°C),ASC tube jacket temperature (°C),LED temperature (°C),Box temperature (°C),Sample RH (%),Span deviation,Mass concentration (μg/m³),Mass concentration (μg/m³),Mass concentration (μg/m³)
DateTimeUTC,F1_M11,P_M11,Q1_M11,Q2_M11,T1_M11,T2_M11,T3_M11,T4_M11,T5_M11,U1_M11,ZSPAN_M11,X0_M11,X2_M11,X1_M11
2023-05-22 10:00:00,,0831.5,5.00,0.00,28.7,26.8,00.0,37.1,30.2,18.4,0003.3,0023.07,0016.83,0015.92
2023-05-22 10:01:00,,0831.6,4.99,0.00,28.7,26.8,00.0,37.1,30.2,18.4,0003.3,0022.72,0016.80,0015.91
2023-05-22 10:02:00,,0831.6,4.99,0.00,28.7,26.8,00.0,37.1,30.2,18.4,0003.3,0022.66,0016.81,0015.93
2023-05-22 10:03:00,,0831.6,5.00,0.00,28.7,26.8,00.0,37.1,30.2,18.3,0003.3,0022.73,0016.82,0015.94
2023-05-22 10:04:00,,0831.5,5.00,0.00,28.7,26.8,00.0,37.1,30.2,18.4,0003.3,0023.30,0016.87,0015.94
2023-05-22 10:05:00,,0831.5,5.00,0.00,28.7,26.8,00.0,37.1,30.2,18.5,0003.3,0023.31,0016.91,0015.95
2023-05-22 10:06:00,,0831.6,5.01,0.00,28.7,26.8,00.0,37.0,30.2,18.4,0003.4,0023.30,0016.89,0015.93
2023-05-22 10:07:00,,0831.5,5.00,0.00,28.7,26.7,00.0,37.0,30.2,18.5,0003.5,0024.37,0016.94,0015.95
2023-05-22 10:08:00,,0831.5,5.00,0.00,28.7,26.8,00.0,37.0,30.2,18.5,0003.6,0024.71,0016.95,0015.94
2023-05-22 10:09:00,,0831.6,5.00,0.00,28.6,26.8,00.0,37.0,30.2,18.4,0003.6,0024.64,0016.93,0015.91
2023-05-22 10:10:00,,0831.6,5.00,0.00,28.6,26.8,00.0,37.0,30.2,18.4,0003.6,0024.60,0016.89,0015.90
2023-05-22 10:11:00,,0831.6,5.00,0.00,28.6,26.8,00.0,37.0,30.2,18.4,0003.5,0024.59,0016.90,0015.92
2023-05-22 10:12:00,,0831.6,4.99,0.00,28.6,26.8,00.0,37.0,30.2,18.4,0003.5,0024.29,0016.90,0015.94
2023-05-22 10:13:00,,0831.6,5.00,0.00,28.6,26.8,00.0,37.0,30.2,18.5,0003.5,0024.11,0016.84,0015.91
2023-05-22 10:14:00,,0831.6,4.99,0.00,28.6,26.8,00.0,37.0,30.2,18.5,0003.4,0024.30,0016.82,0015.90
2023-05-22 10:15:00,,0831.6,4.99,0.00,28.6,26.7,00.0,37.0,30.2,18.4,0003.3,0023.82,0016.77,0015.90
2023-05-22 10:16:00,,0831.5,5.00,0.00,28.6,26.7,00.0,37.0,30.2,18.4,0003.5,0023.54,0016.70,0015.89
2023-05-22 10:17:00,,0831.5,5.00,0.00,28.6,26.7,00.0,37.0,30.2,18.4,0003.6,0023.36,0016.66,0015.88
2023-05-22 10:18:00,,0831.5,5.00,0.00,28.6,26.7,00.0,37.0,30.2,18.4,0003.6,0022.41,0016.63,0015.86
2023-05-22 10:19:00,,0831.5,5.00,0.00,28.6,26.7,00.0,37.0,30.2,18.4,0003.4,0022.11,0016.63,0015.88
2023-05-22 10:20:00,,0831.5,5.00,0.00,28.6,26.7,00.0,37.0,30.2,18.4,0003.3,0022.16,0016.65,0015.90
2023-05-22 10:21:00,,0831.5,5.00,0.00,28.6,26.7,00.0,37.0,30.2,18.5,0003.3,0021.91,0016.64,0015.90
2023-05-22 10:22:00,,0831.5,5.00,0.00,28.6,26.7,00.0,36.9,30.1,18.4,0003.4,0021.68,0016.60,0015.88
2023-05-22 10:23:00,,0831.5,5.00,0.00,28.6,26.7,00.0,36.9,30.1,18.4,0003.5,0021.78,0016.62,0015.88
2023-05-22 10:24:00,,0831.5,4.99,0.00,28.6,26.7,00.0,36.9,30.1,18.4,0003.5,0021.75,0016.59,0015.85
2023-05-22 10:25:00,,0831.5,4.99,0.00,28.6,26.7,00.0,36.9,30.1,18.4,0003.6,0021.45,0016.54,0015.82
2023-05-22 10:26:00,,0831.5,5.00,0.00,28.6,26.7,00.0,36.9,30.2,18.4,0003.7,0021.39,0016.56,0015.83
2023-05-22 10:27:00,,0831.5,5.00,0.00,28.6,26.7,00.0,36.9,30.1,18.4,0003.5,0021.55,0016.58,0015.81
2023-05-22 10:28:00,,0831.5,5.00,0.00,28.6,26.7,00.0,36.9,30.1,18.3,0003.5,0021.60,0016.59,0015.80
2023-05-22 10:29:00,,0831.5,5.00,0.00,28.5,26.7,00.0,36.9,30.1,18.3,0003.4,0021.71,0016.56,0015.78
2023-05-22 10:30:00,,0831.4,5.00,0.00,28.5,26.7,00.0,36.9,30.1,18.4,0003.4,0022.07,0016.51,0015.74
2023-05-22 10:31:00,,0831.5,5.00,0.00,28.5,26.7,00.0,36.9,30.1,18.3,0003.6,0021.90,0016.45,0015.72
2023-05-22 10:32:00,,0831.5,5.00,0.00,28.5,26.7,00.0,36.9,30.1,18.3,0003.6,0021.83,0016.43,0015.70
2023-05-22 10:33:00,,0831.5,4.99,0.00,28.5,26.7,00.0,36.9,30.1,18.3,0003.7,0022.13,0016.41,0015.70
2023-05-22 10:34:00,,0831.5,5.00,0.00,28.5,26.7,00.0,36.9,30.1,18.3,0003.5,0023.22,0016.36,0015.68
2023-05-22 10:35:00,,0831.4,5.00,0.00,28.5,26.7,00.0,36.9,30.1,18.2,0003.4,0023.29,0016.41,0015.69
2023-05-22 10:36:00,,0831.4,5.02,0.00,28.5,26.7,00.0,36.9,30.1,18.3,0003.4,0023.41,0016.48,0015.72
2023-05-22 10:37:00,,0831.4,4.98,0.00,28.5,26.6,00.0,36.9,30.1,18.2,0003.3,0023.46,0016.51,0015.70
2023-05-22 10:38:00,,0831.4,5.01,0.00,28.5,26.6,00.0,36.9,30.1,18.3,0003.3,0023.32,0016.46,0015.68
2023-05-22 10:39:00,,0831.4,5.01,0.00,28.5,26.6,00.0,36.9,30.1,18.3,0003.4,0023.54,0016.51,0015.70
2023-05-22 10:40:00,,0831.4,5.01,0.00,28.5,26.7,00.0,36.9,30.1,18.2,0003.5,0023.51,0016.49,0015.67
2023-05-22 10:41:00,,0831.4,5.00,0.00,28.5,26.6,00.0,36.9,30.1,18.2,0003.6,0023.09,0016.47,0015.65
2023-05-22 10:42:00,,0831.4,5.00,0.00,28.5,26.6,00.0,36.9,30.1,18.2,0003.4,0023.20,0016.52,0015.66
2023-05-22 10:43:00,,0831.3,5.00,0.00,28.5,26.6,00.0,36.9,30.1,18.3,0003.4,0023.25,0016.52,0015.63
2023-05-22 10:44:00,,0831.3,4.99,0.00,28.5,26.7,00.0,36.8,30.1,18.4,0003.3,0023.23,0016.52,0015.62
2023-05-22 10:45:00,,0831.3,4.99,0.00,28.5,26.6,00.0,36.8,30.1,18.4,0003.3,0021.88,0016.50,0015.60
2023-05-22 10:46:00,,0831.4,5.00,0.00,28.5,26.6,00.0,36.8,30.1,18.4,0003.5,0022.67,0016.53,0015.62
2023-05-22 10:47:00,,0831.3,5.00,0.00,28.5,26.6,00.0,36.8,30.1,18.4,0003.5,0023.33,0016.54,0015.61
2023-05-22 10:48:00,,0831.3,5.00,0.00,28.5,26.6,00.0,36.8,30.1,18.4,0003.4,0023.62,0016.51,0015.62
2023-05-22 10:49:00,,0831.4,5.01,0.00,28.5,26.6,00.0,36.8,30.0,18.4,0003.5,0023.77,0016.53,0015.65
2023-05-22 10:50:00,,0831.3,5.00,0.00,28.4,26.6,00.0,36.8,30.0,18.4,0003.5,0023.81,0016.49,0015.64
2023-05-22 10:51:00,,0831.4,5.00,0.00,28.5,26.6,00.0,36.8,30.0,18.4,0003.3,0023.64,0016.45,0015.64
2023-05-22 10:52:00,,0831.3,5.00,0.00,28.4,26.6,00.0,36.8,30.0,18.4,0003.3,0023.53,0016.46,0015.65
2023-05-22 10:53:00,,0831.3,5.01,0.00,28.4,26.6,00.0,36.8,30.0,18.4,0003.3,0023.43,0016.45,0015.67
2023-05-22 10:54:00,,0831.3,5.00,0.00,28.4,26.5,00.0,36.8,30.0,18.4,0003.3,0023.40,0016.44,0015.66
2023-05-22 10:55:00,,0831.3,4.99,0.00,28.4,26.5,00.0,36.8,30.0,18.3,0003.4,0023.50,0016.45,0015.66
2023-05-22 10:56:00,,0831.3,5.01,0.00,28.4,26.5,00.0,36.8,30.0,18.3,0003.4,0023.70,0016.52,0015.71
2023-05-22 10:57:00,,0831.3,5.00,0.00,28.4,26.5,00.0,36.8,30.0,18.4,0003.3,0023.17,0016.52,0015.71
2023-05-22 10:58:00,,0831.3,5.00,0.00,28.4,26.5,00.0,36.8,30.0,18.4,0003.3,0022.42,0016.50,0015.71
2023-05-22 10:59:00,,0831.3,4.99,0.00,28.4,26.5,00.0,36.8,30.0,18.3,0003.5,0022.44,0016.48,0015.67
